Showing default

AETHER-12, 67383

Orbit data source: Space-Track

AETHER-12, 67383 is a payload satellite owned by Kepler Comms (CA) in SSO that was launched on Sun, 11 Jan 2026 UTC via an FALCON 9 launch vehicle from the Air Force Western Test Range (AFWTR). Payload-class satellites include a variety of spacecraft equipped with specific instruments for various scientific and technological missions. These include communications satellites like Starlink; space stations such as the ISS; scientific satellites like the Hubble; Earth observation satellites from companies like Planet Labs, Umbra, and HawkEye 360; GPS; miniature CubeSats for education and research; and military/defense satellites.

Loading next visibility...
Identifier
67383, 2026-004W
Orbit
SSO
Country
Flag of CACA
Related business
Manufacturer
Kepler Comms
Mission
Operational Commercial Communications
Bus & Motor
KEPLER GEN2B, Unknown motor
Mass
300 kg wet, 300 kg dry
Launch date (UTC)
2026-01-11 (4 months ago)
Launch vehicle
FALCON 9
Launch site
Air Force Western Test Range (AFWTR)
Object type
Payload
Rocket body
Debris
Shape & HBR
Box + 2 Pan, 7.6 m
Radar Cross Section
4.448 m²

Expand to show TLE details & history
Last TLE update: 5 hours ago

TLE from 5 hours ago
0 AETHER-12
1 67383U 26004W   26146.61071228  .00000628  00000-0  77395-4 0  9996
2 67383  97.8006 145.5006 0003575 170.3968 189.7317 14.86306067 20070
Epoch: 2026-05-26T14:39Z
TLE epoch observation values (Epoch: 2026-05-26T14:39:25.540Z)
Latitude
-0.00002°
Longitude
41.46251°
Altitude
614.985 km
Speed
7.55 km/s
True Right ascension
09h 42m 00s
True Declination
0° 00' 00"
Sunlit
Object was in daylight at epoch
Visualization orbit readout
Latitude
Unknown
Longitude
Unknown
Altitude
Unknown
Speed
Unknown
Apparent Right ascension
Unknown
Apparent Declination
Unknown
Sunlit
N/A
Visualization observer readout
Local Sidereal Time
04:33:08
Azimuth
Unknown
Elevation
Unknown
Doppler factor
Unknown
Orbital elements
Apogee altitude
609.014 km
Perigee altitude
604.02 km
Semi-major axis
6,984.654 km
Eccentricity
0.00036
Inclination
97.8006°
RAAN
145.5006°
Arg. of periapsis
170.3968°
True anomaly
189.72478°
Mean anomaly
189.7317°
Eccentric anomaly
189.72824°
Mean motion
3.71814 °/min
Orbital period
96.82 mins
BSTAR
0.000077395
Loading maneuver chart data...
Computing Atmospheric mass density...
Loading historical data...
Loading historical data...
Loading historical data...
Loading historical data...
Loading historical data...
Loading historical data...
Loading historical data...

Documentation

Showing up to 5 results
|